Precipitable_Water
0.44 0.44 0.44 0.44 0.43 0.40 0.38 0.38 0.37 0.36 0.36 0.36 0.36 0.36 0.38 0.41 0.41 0.41 0.41 0.42 0.44 0.46 0.46 0.46 0.47 0.48 0.48 0.50 0.50 0.50 0.50 0.43 0.41 0.39 0.36 0.34 0.44 0.46 0.47 0.45 0.50 0.48 0.45 0.52 0.76 0.75 0.76 0.89 0.90 1.05 0.95 0.89 0.89 0.93 1.14 1.15 1.25 1.27 1.04 0.95 0.92 1.04 1.00 1.14 1.16 1.18 1.30 1.31 1.35 1.41 1.48 1.44 1.30 1.46 1.55 1.62 1.51 1.50 1.43 1.40 1.43 1.53 1.45 1.54 1.59 1.64 1.63 1.62
0.44 0.44 0.44 0.44 0.42 0.41 0.39 0.38 0.36 0.36 0.35 0.36 0.37 0.37 0.38 0.39 0.40 0.40 0.39 0.40 0.42 0.43 0.44 0.44 0.45 0.48 0.50 0.50 0.50 0.50 0.45 0.41 0.33 0.37 0.36 0.54 0.66 0.64 0.54 0.48 0.54 0.52 0.48 0.50 0.58 0.59 0.61 0.71 0.83 0.84 0.87 0.73 1.03 0.79 1.09 0.94 1.17 0.97 0.93 0.90 0.88 1.07 1.21 1.25 1.28 1.30 1.28 1.27 1.39 1.42 1.50 1.48 1.41 1.46 1.50 1.36 1.35 1.39 1.33 1.37 1.39 1.38 1.41 1.49 1.52 1.60 1.60 1.55
0.44 0.44 0.44 0.45 0.44 0.43 0.41 0.38 0.37 0.36 0.36 0.36 0.37 0.37 0.37 0.36 0.38 0.38 0.38 0.38 0.39 0.41 0.42 0.43 0.43 0.47 0.48 0.51 0.50 0.49 0.40 0.32 0.38 0.39 0.55 0.71 0.71 0.73 0.69 0.53 0.57 0.54 0.48 0.46 0.57 0.57 0.53 0.59 0.72 0.69 0.74 0.69 0.81 0.71 0.85 0.92 0.97 0.98 0.93 0.84 0.90 1.18 1.25 1.27 1.31 1.34 1.36 1.36 1.34 1.37 1.44 1.46 1.50 1.47 1.55 1.36 1.32 1.34 1.25 1.25 1.32 1.32 1.27 1.32 1.41 1.53 1.56 1.50
0.43 0.44 0.44 0.45 0.45 0.44 0.42 0.40 0.37 0.37 0.37 0.37 0.39 0.39 0.38 0.37 0.35 0.36 0.37 0.38 0.37 0.38 0.41 0.41 0.43 0.45 0.46 0.44 0.49 0.51 0.38 0.26 0.30 0.40 0.57 0.73 0.83 0.82 0.78 0.58 0.62 0.60 0.56 0.52 0.56 0.59 0.69 0.74 0.69 0.68 0.63 0.60 0.65 0.73 0.67 0.91 0.80 0.94 0.88 0.83 1.05 1.18 1.15 1.27 1.34 1.39 1.40 1.42 1.37 1.36 1.43 1.39 1.47 1.51 1.44 1.37 1.27 1.25 1.31 1.38 1.31 1.27 1.29 1.29 1.38 1.47 1.53 1.45
0.42 0.42 0.43 0.44 0.45 0.45 0.43 0.41 0.39 0.37 0.37 0.39 0.40 0.41 0.39 0.37 0.36 0.36 0.36 0.37 0.37 0.37 0.39 0.40 0.43 0.44 0.46 0.47 0.44 0.46 0.34 0.17 0.27 0.45 0.55 0.72 0.86 0.94 0.84 0.63 0.66 0.64 0.62 0.55 0.56 0.63 0.66 0.64 0.61 0.65 0.63 0.52 0.59 0.58 0.64 0.81 0.86 1.04 0.86 0.94 1.06 1.14 1.16 1.33 1.38 1.40 1.44 1.42 1.37 1.37 1.31 1.32 1.55 1.50 1.40 1.38 1.20 1.21 1.30 1.41 1.43 1.40 1.37 1.31 1.32 1.41 1.48 1.41
0.41 0.41 0.41 0.43 0.44 0.45 0.44 0.41 0.38 0.37 0.37 0.37 0.39 0.39 0.39 0.37 0.36 0.35 0.36 0.37 0.38 0.37 0.37 0.39 0.44 0.42 0.45 0.47 0.47 0.38 0.23 0.10 0.35 0.45 0.60 0.72 0.87 0.82 0.84 0.67 0.69 0.68 0.69 0.53 0.48 0.55 0.62 0.59 0.52 0.51 0.51 0.51 0.55 0.48 0.59 0.68 0.86 0.73 0.92 0.91 1.05 1.20 1.26 1.35 1.38 1.42 1.43 1.38 1.33 1.31 1.40 1.47 1.42 1.37 1.43 1.40 1.35 1.33 1.51 1.51 1.48 1.45 1.45 1.39 1.38 1.39 1.38 1.35
0.40 0.40 0.40 0.41 0.43 0.45 0.45 0.42 0.38 0.38 0.37 0.38 0.38 0.37 0.37 0.36 0.35 0.34 0.34 0.35 0.37 0.38 0.37 0.40 0.44 0.45 0.44 0.45 0.43 0.30 0.20 0.16 0.33 0.49 0.59 0.78 0.82 0.86 0.78 0.70 0.73 0.73 0.75 0.57 0.53 0.50 0.52 0.47 0.42 0.41 0.42 0.44 0.55 0.53 0.59 0.61 0.78 0.73 0.79 0.98 0.97 1.15 1.20 1.38 1.38 1.43 1.41 1.35 1.30 1.37 1.46 1.35 1.36 1.23 1.43 1.34 1.44 1.49 1.50 1.51 1.51 1.50 1.51 1.45 1.34 1.34 1.35 1.32
0.41 0.41 0.41 0.42 0.43 0.44 0.44 0.41 0.39 0.37 0.38 0.38 0.37 0.36 0.36 0.35 0.33 0.33 0.34 0.35 0.36 0.37 0.39 0.43 0.46 0.45 0.47 0.39 0.29 0.21 0.19 0.19 0.32 0.46 0.56 0.83 0.87 0.81 0.76 0.72 0.70 0.73 0.65 0.47 0.39 0.39 0.43 0.38 0.32 0.40 0.35 0.36 0.46 0.49 0.61 0.66 0.71 0.65 0.65 0.88 1.00 1.11 1.22 1.34 1.38 1.36 1.36 1.33 1.38 1.36 1.28 1.28 1.35 1.32 1.38 1.33 1.38 1.50 1.49 1.50 1.50 1.50 1.47 1.43 1.36 1.31 1.35 1.36
0.41 0.42 0.42 0.42 0.42 0.43 0.43 0.41 0.38 0.37 0.37 0.36 0.36 0.35 0.35 0.34 0.33 0.33 0.34 0.34 0.37 0.40 0.44 0.48 0.47 0.48 0.49 0.36 0.22 0.13 0.15 0.26 0.28 0.39 0.48 0.74 0.79 0.77 0.76 0.67 0.72 0.66 0.58 0.47 0.41 0.40 0.38 0.34 0.34 0.34 0.27 0.30 0.42 0.44 0.57 0.54 0.52 0.64 0.67 0.77 0.88 0.97 1.15 1.27 1.30 1.31 1.30 1.32 1.33 1.26 1.24 1.30 1.34 1.42 1.30 1.38 1.41 1.55 1.55 1.47 1.46 1.48 1.42 1.39 1.35 1.32 1.31 1.30
0.42 0.41 0.42 0.43 0.43 0.43 0.42 0.40 0.37 0.37 0.36 0.36 0.35 0.35 0.33 0.32 0.32 0.33 0.34 0.38 0.42 0.46 0.47 0.48 0.49 0.50 0.41 0.30 0.23 0.12 0.23 0.32 0.45 0.39 0.42 0.64 0.71 0.76 0.80 0.72 0.70 0.66 0.56 0.49 0.43 0.40 0.33 0.34 0.29 0.33 0.33 0.32 0.39 0.38 0.50 0.48 0.59 0.78 0.69 0.67 0.79 0.94 1.08 1.21 1.22 1.26 1.31 1.29 1.31 1.19 1.20 1.23 1.36 1.30 1.12 1.36 1.48 1.57 1.53 1.44 1.45 1.43 1.38 1.37 1.36 1.34 1.33 1.30
0.39 0.40 0.42 0.42 0.42 0.42 0.41 0.38 0.37 0.35 0.36 0.36 0.35 0.34 0.33 0.32 0.32 0.34 0.39 0.44 0.47 0.47 0.48 0.49 0.51 0.47 0.36 0.34 0.18 0.14 0.37 0.36 0.43 0.45 0.42 0.61 0.66 0.69 0.77 0.72 0.72 0.63 0.59 0.52 0.42 0.41 0.38 0.38 0.35 0.37 0.30 0.26 0.35 0.35 0.38 0.47 0.52 0.69 0.77 0.70 0.68 0.77 0.94 1.08 1.17 1.23 1.28 1.20 1.27 1.23 1.16 1.22 1.31 1.27 1.21 1.32 1.48 1.55 1.48 1.45 1.41 1.41 1.38 1.37 1.36 1.34 1.34 1.32
0.39 0.40 0.41 0.43 0.43 0.42 0.40 0.38 0.36 0.35 0.35 0.35 0.35 0.34 0.33 0.33 0.33 0.38 0.43 0.46 0.45 0.44 0.46 0.50 0.50 0.49 0.42 0.30 0.24 0.25 0.43 0.38 0.42 0.45 0.46 0.58 0.61 0.67 0.81 0.77 0.75 0.70 0.62 0.51 0.43 0.43 0.43 0.41 0.38 0.35 0.19 0.27 0.25 0.34 0.37 0.46 0.49 0.57 0.65 0.51 0.56 0.69 0.77 0.95 1.03 1.14 1.20 1.12 1.20 1.22 1.12 1.08 1.15 1.12 1.26 1.42 1.48 1.49 1.47 1.45 1.43 1.38 1.38 1.39 1.35 1.34 1.33 1.31
0.39 0.40 0.42 0.43 0.43 0.43 0.40 0.37 0.36 0.36 0.35 0.36 0.36 0.34 0.33 0.33 0.38 0.41 0.45 0.43 0.43 0.46 0.51 0.55 0.54 0.52 0.41 0.28 0.24 0.32 0.40 0.43 0.40 0.39 0.40 0.48 0.59 0.62 0.77 0.75 0.73 0.77 0.69 0.59 0.48 0.48 0.47 0.47 0.41 0.31 0.26 0.23 0.24 0.24 0.46 0.40 0.40 0.44 0.46 0.47 0.49 0.55 0.62 0.85 1.01 1.09 1.08 1.11 1.17 1.16 0.81 0.93 1.04 1.18 1.26 1.44 1.43 1.43 1.42 1.40 1.43 1.41 1.39 1.38 1.34 1.32 1.33 1.34
0.39 0.41 0.43 0.44 0.44 0.43 0.40 0.37 0.36 0.35 0.35 0.36 0.36 0.34 0.34 0.37 0.41 0.45 0.44 0.40 0.46 0.54 0.56 0.58 0.61 0.51 0.38 0.21 0.28 0.33 0.35 0.42 0.40 0.40 0.29 0.42 0.54 0.54 0.63 0.73 0.70 0.76 0.78 0.64 0.58 0.56 0.50 0.49 0.43 0.35 0.32 0.24 0.29 0.40 0.33 0.41 0.41 0.35 0.39 0.44 0.39 0.41 0.45 0.72 0.90 1.02 0.97 1.11 1.13 1.14 0.83 0.89 1.03 1.15 1.27 1.37 1.41 1.34 1.31 1.37 1.40 1.44 1.42 1.37 1.36 1.33 1.31 1.31
0.38 0.40 0.43 0.45 0.45 0.43 0.41 0.39 0.37 0.36 0.36 0.36 0.35 0.35 0.37 0.40 0.43 0.44 0.41 0.45 0.54 0.58 0.60 0.62 0.59 0.43 0.35 0.25 0.35 0.36 0.39 0.42 0.39 0.26 0.28 0.36 0.46 0.52 0.59 0.65 0.63 0.65 0.70 0.71 0.59 0.57 0.52 0.44 0.39 0.31 0.25 0.27 0.33 0.27 0.20 0.29 0.37 0.36 0.34 0.32 0.38 0.38 0.46 0.67 0.85 0.93 0.87 1.02 1.11 1.07 0.83 0.93 1.06 1.11 1.19 1.33 1.36 1.33 1.29 1.34 1.38 1.41 1.43 1.38 1.35 1.33 1.30 1.29
0.38 0.40 0.43 0.45 0.45 0.44 0.42 0.40 0.38 0.37 0.37 0.37 0.35 0.36 0.42 0.45 0.45 0.45 0.45 0.49 0.59 0.60 0.59 0.53 0.48 0.44 0.32 0.17 0.22 0.36 0.39 0.24 0.24 0.28 0.30 0.31 0.32 0.51 0.60 0.57 0.59 0.60 0.63 0.65 0.66 0.56 0.46 0.42 0.33 0.31 0.30 0.28 0.23 0.19 0.20 0.21 0.27 0.35 0.31 0.31 0.34 0.39 0.43 0.56 0.73 0.88 0.97 1.00 1.05 1.00 0.85 0.90 0.92 1.05 1.17 1.30 1.31 1.30 1.28 1.31 1.36 1.39 1.41 1.42 1.36 1.32 1.30 1.31
0.38 0.40 0.43 0.45 0.45 0.45 0.43 0.41 0.39 0.38 0.37 0.37 0.36 0.37 0.46 0.44 0.47 0.49 0.50 0.50 0.61 0.64 0.51 0.40 0.45 0.45 0.24 0.27 0.33 0.25 0.23 0.26 0.32 0.30 0.29 0.30 0.32 0.56 0.54 0.49 0.50 0.53 0.55 0.57 0.58 0.52 0.45 0.38 0.36 0.34 0.32 0.25 0.22 0.19 0.16 0.17 0.20 0.26 0.32 0.30 0.34 0.35 0.40 0.43 0.62 0.79 0.93 0.95 0.90 0.99 0.91 0.95 1.06 1.07 1.19 1.27 1.27 1.27 1.25 1.29 1.35 1.38 1.40 1.43 1.42 1.33 1.29 1.29
0.38 0.38 0.42 0.44 0.44 0.44 0.43 0.42 0.40 0.38 0.36 0.37 0.37 0.38 0.42 0.46 0.51 0.52 0.49 0.50 0.59 0.57 0.54 0.52 0.42 0.29 0.23 0.24 0.20 0.22 0.28 0.28 0.29 0.32 0.34 0.34 0.33 0.57 0.50 0.45 0.48 0.50 0.48 0.43 0.51 0.41 0.44 0.35 0.37 0.26 0.26 0.24 0.22 0.16 0.12 0.11 0.15 0.19 0.27 0.29 0.31 0.36 0.41 0.44 0.50 0.66 0.79 0.90 0.86 0.92 0.91 0.92 1.02 1.08 1.16 1.20 1.25 1.25 1.23 1.29 1.34 1.36 1.38 1.41 1.41 1.36 1.30 1.28
0.38 0.37 0.41 0.44 0.44 0.43 0.44 0.43 0.41 0.39 0.37 0.38 0.38 0.43 0.50 0.48 0.48 0.45 0.32 0.35 0.38 0.31 0.31 0.20 0.19 0.14 0.15 0.19 0.24 0.26 0.27 0.29 0.33 0.32 0.34 0.31 0.46 0.61 0.55 0.52 0.48 0.42 0.35 0.32 0.34 0.39 0.42 0.37 0.38 0.28 0.20 0.19 0.17 0.16 0.13 0.16 0.17 0.15 0.24 0.29 0.30 0.33 0.41 0.43 0.51 0.69 0.75 0.77 0.79 0.83 0.82 0.90 0.99 0.99 1.11 1.18 1.20 1.20 1.24 1.32 1.36 1.38 1.38 1.39 1.38 1.37 1.33 1.28
0.38 0.37 0.38 0.43 0.44 0.44 0.44 0.44 0.43 0.41 0.40 0.36 0.39 0.35 0.40 0.26 0.32 0.26 0.23 0.24 0.20 0.19 0.18 0.20 0.22 0.22 0.22 0.21 0.22 0.27 0.30 0.31 0.27 0.32 0.37 0.40 0.52 0.51 0.48 0.46 0.42 0.41 0.33 0.26 0.28 0.32 0.41 0.30 0.27 0.21 0.20 0.20 0.20 0.21 0.20 0.19 0.25 0.23 0.22 0.27 0.30 0.32 0.38 0.44 0.49 0.65 0.75 0.74 0.74 0.80 0.83 0.89 0.94 0.97 1.03 1.13 1.17 1.17 1.22 1.27 1.31 1.34 1.35 1.35 1.36 1.35 1.35 1.34
0.38 0.37 0.35 0.40 0.44 0.44 0.43 0.43 0.44 0.42 0.41 0.39 0.34 0.27 0.19 0.20 0.15 0.15 0.18 0.19 0.22 0.24 0.21 0.20 0.20 0.19 0.19 0.21 0.24 0.24 0.22 0.24 0.28 0.30 0.36 0.49 0.60 0.48 0.41 0.40 0.36 0.31 0.31 0.30 0.27 0.33 0.33 0.24 0.26 0.26 0.25 0.26 0.25 0.23 0.22 0.19 0.21 0.21 0.21 0.23 0.30 0.35 0.36 0.42 0.45 0.56 0.68 0.64 0.68 0.77 0.79 0.83 0.92 0.98 1.03 1.10 1.11 1.08 1.15 1.21 1.26 1.30 1.33 1.34 1.33 1.34 1.35 1.41
0.38 0.37 0.36 0.35 0.40 0.42 0.42 0.41 0.43 0.42 0.42 0.43 0.33 0.26 0.27 0.29 0.30 0.33 0.27 0.18 0.19 0.25 0.22 0.22 0.21 0.20 0.22 0.21 0.24 0.26 0.25 0.22 0.24 0.28 0.37 0.43 0.48 0.45 0.45 0.37 0.31 0.27 0.31 0.31 0.30 0.26 0.22 0.20 0.23 0.29 0.29 0.28 0.26 0.24 0.23 0.20 0.18 0.20 0.16 0.18 0.19 0.23 0.31 0.40 0.46 0.56 0.58 0.58 0.61 0.71 0.69 0.73 0.83 0.91 0.99 0.99 1.05 1.11 1.17 1.20 1.25 1.27 1.28 1.32 1.34 1.36 1.40 1.42
0.38 0.37 0.35 0.35 0.36 0.41 0.43 0.42 0.42 0.43 0.41 0.34 0.28 0.28 0.28 0.36 0.41 0.40 0.33 0.21 0.17 0.24 0.21 0.20 0.19 0.17 0.18 0.21 0.21 0.25 0.20 0.19 0.19 0.25 0.30 0.36 0.41 0.35 0.43 0.35 0.31 0.30 0.30 0.29 0.24 0.23 0.19 0.20 0.24 0.29 0.30 0.28 0.26 0.26 0.24 0.22 0.21 0.17 0.13 0.13 0.16 0.21 0.24 0.27 0.42 0.52 0.54 0.53 0.56 0.66 0.63 0.67 0.78 0.85 0.87 0.92 1.02 1.11 1.16 1.19 1.25 1.26 1.28 1.27 1.31 1.37 1.38 1.38
0.38 0.38 0.37 0.35 0.34 0.40 0.42 0.42 0.43 0.45 0.38 0.34 0.31 0.31 0.39 0.42 0.42 0.38 0.26 0.17 0.15 0.19 0.22 0.21 0.21 0.19 0.17 0.16 0.19 0.20 0.19 0.21 0.22 0.22 0.33 0.31 0.28 0.33 0.36 0.38 0.36 0.31 0.27 0.26 0.26 0.23 0.20 0.23 0.26 0.28 0.30 0.29 0.26 0.24 0.22 0.19 0.16 0.16 0.14 0.14 0.16 0.21 0.25 0.27 0.36 0.41 0.50 0.51 0.56 0.59 0.56 0.57 0.65 0.70 0.74 0.82 0.96 1.05 1.11 1.13 1.19 1.27 1.31 1.34 1.39 1.44 1.45 1.42
0.38 0.38 0.37 0.36 0.34 0.39 0.41 0.41 0.38 0.35 0.36 0.39 0.33 0.39 0.42 0.43 0.43 0.43 0.24 0.19 0.17 0.18 0.27 0.23 0.21 0.19 0.19 0.24 0.23 0.19 0.20 0.22 0.22 0.27 0.31 0.31 0.28 0.27 0.30 0.39 0.39 0.35 0.35 0.30 0.26 0.23 0.23 0.27 0.32 0.27 0.28 0.30 0.27 0.23 0.21 0.20 0.17 0.17 0.16 0.14 0.17 0.23 0.26 0.28 0.33 0.39 0.38 0.36 0.44 0.49 0.42 0.42 0.55 0.63 0.67 0.74 0.82 0.89 1.00 1.05 1.09 1.16 1.27 1.35 1.33 1.35 1.42 1.46
0.38 0.37 0.36 0.37 0.38 0.40 0.43 0.37 0.36 0.37 0.37 0.31 0.34 0.42 0.44 0.44 0.48 0.42 0.27 0.14 0.11 0.17 0.20 0.15 0.20 0.18 0.24 0.19 0.21 0.21 0.20 0.18 0.22 0.26 0.30 0.33 0.34 0.30 0.27 0.27 0.32 0.31 0.37 0.36 0.28 0.25 0.24 0.29 0.30 0.28 0.27 0.27 0.28 0.25 0.25 0.24 0.18 0.16 0.16 0.16 0.14 0.20 0.30 0.31 0.29 0.30 0.30 0.30 0.37 0.44 0.36 0.32 0.47 0.51 0.61 0.68 0.73 0.80 0.92 0.97 1.05 1.13 1.21 1.28 1.29 1.34 1.38 1.40
0.38 0.38 0.37 0.37 0.41 0.44 0.36 0.32 0.40 0.42 0.32 0.34 0.41 0.46 0.46 0.43 0.51 0.39 0.20 0.14 0.10 0.18 0.16 0.19 0.19 0.20 0.24 0.21 0.21 0.23 0.15 0.18 0.23 0.27 0.27 0.32 0.29 0.35 0.23 0.25 0.30 0.32 0.40 0.44 0.36 0.28 0.31 0.29 0.30 0.30 0.28 0.26 0.27 0.25 0.27 0.27 0.21 0.17 0.21 0.20 0.17 0.13 0.18 0.25 0.27 0.26 0.25 0.35 0.43 0.48 0.42 0.33 0.34 0.45 0.57 0.65 0.65 0.72 0.83 0.90 0.97 1.08 1.15 1.20 1.25 1.31 1.34 1.38
0.40 0.39 0.38 0.39 0.43 0.48 0.39 0.43 0.42 0.37 0.38 0.43 0.49 0.48 0.47 0.49 0.47 0.40 0.19 0.09 0.10 0.22 0.16 0.19 0.20 0.26 0.23 0.22 0.22 0.17 0.16 0.19 0.16 0.24 0.26 0.30 0.31 0.30 0.24 0.25 0.25 0.27 0.32 0.35 0.23 0.33 0.36 0.31 0.32 0.30 0.29 0.27 0.26 0.29 0.30 0.30 0.25 0.22 0.24 0.25 0.24 0.17 0.13 0.16 0.23 0.26 0.26 0.28 0.27 0.40 0.43 0.32 0.29 0.39 0.58 0.63 0.58 0.62 0.74 0.83 0.92 1.01 1.10 1.16 1.22 1.27 1.33 1.36
0.43 0.42 0.41 0.43 0.48 0.51 0.55 0.47 0.44 0.41 0.48 0.51 0.51 0.50 0.47 0.51 0.40 0.24 0.18 0.09 0.21 0.18 0.26 0.18 0.28 0.23 0.22 0.24 0.20 0.20 0.19 0.20 0.16 0.21 0.24 0.29 0.33 0.28 0.22 0.24 0.25 0.25 0.31 0.34 0.24 0.31 0.39 0.37 0.36 0.36 0.32 0.27 0.31 0.33 0.33 0.32 0.27 0.28 0.28 0.40 0.33 0.27 0.19 0.15 0.17 0.22 0.26 0.25 0.20 0.29 0.39 0.29 0.27 0.35 0.40 0.51 0.50 0.55 0.66 0.78 0.87 0.96 1.00 1.09 1.17 1.24 1.30 1.35
0.47 0.45 0.45 0.49 0.50 0.56 0.54 0.56 0.48 0.52 0.54 0.54 0.54 0.50 0.48 0.40 0.30 0.16 0.13 0.09 0.22 0.16 0.21 0.22 0.21 0.18 0.21 0.18 0.18 0.19 0.18 0.19 0.20 0.22 0.26 0.20 0.26 0.30 0.28 0.30 0.25 0.24 0.24 0.30 0.30 0.30 0.38 0.45 0.43 0.41 0.35 0.34 0.34 0.35 0.37 0.35 0.33 0.34 0.29 0.30 0.30 0.27 0.24 0.22 0.19 0.20 0.23 0.18 0.20 0.26 0.30 0.33 0.25 0.31 0.35 0.37 0.41 0.48 0.60 0.71 0.82 0.92 0.97 1.02 1.13 1.20 1.27 1.32
0.50 0.50 0.50 0.54 0.47 0.48 0.50 0.46 0.48 0.54 0.57 0.57 0.54 0.48 0.42 0.32 0.20 0.15 0.11 0.16 0.20 0.19 0.22 0.21 0.19 0.22 0.18 0.16 0.15 0.17 0.19 0.19 0.20 0.21 0.23 0.25 0.24 0.24 0.25 0.24 0.27 0.23 0.23 0.24 0.24 0.27 0.33 0.36 0.34 0.40 0.46 0.44 0.39 0.33 0.36 0.39 0.38 0.34 0.27 0.24 0.27 0.27 0.30 0.27 0.24 0.23 0.16 0.15 0.21 0.24 0.24 0.29 0.21 0.24 0.37 0.43 0.48 0.50 0.50 0.58 0.72 0.81 0.89 0.96 1.08 1.19 1.26 1.31
0.55 0.56 0.56 0.55 0.55 0.57 0.44 0.42 0.53 0.59 0.59 0.57 0.51 0.38 0.31 0.20 0.20 0.13 0.12 0.24 0.13 0.17 0.17 0.18 0.21 0.20 0.19 0.20 0.18 0.17 0.16 0.18 0.19 0.19 0.20 0.21 0.21 0.20 0.20 0.21 0.23 0.17 0.17 0.18 0.19 0.24 0.23 0.27 0.32 0.36 0.43 0.42 0.39 0.32 0.32 0.35 0.36 0.34 0.29 0.27 0.21 0.19 0.25 0.21 0.27 0.20 0.17 0.14 0.21 0.22 0.22 0.20 0.20 0.26 0.36 0.39 0.44 0.49 0.51 0.52 0.65 0.77 0.84 0.92 1.03 1.14 1.22 1.28
0.60 0.60 0.60 0.59 0.58 0.56 0.56 0.57 0.60 0.59 0.59 0.55 0.44 0.37 0.24 0.17 0.13 0.17 0.17 0.19 0.15 0.19 0.20 0.22 0.20 0.20 0.20 0.19 0.17 0.19 0.20 0.15 0.20 0.19 0.21 0.21 0.22 0.21 0.24 0.21 0.23 0.20 0.18 0.24 0.21 0.22 0.22 0.26 0.28 0.31 0.38 0.41 0.39 0.31 0.29 0.28 0.31 0.31 0.29 0.28 0.22 0.17 0.22 0.20 0.21 0.23 0.23 0.26 0.28 0.27 0.27 0.17 0.19 0.22 0.29 0.34 0.43 0.48 0.52 0.55 0.60 0.72 0.81 0.89 1.00 1.11 1.19 1.24
0.63 0.63 0.59 0.61 0.59 0.59 0.60 0.62 0.60 0.58 0.53 0.51 0.41 0.29 0.23 0.16 0.16 0.25 0.19 0.19 0.18 0.22 0.21 0.20 0.21 0.22 0.20 0.17 0.18 0.19 0.16 0.19 0.17 0.18 0.20 0.18 0.21 0.23 0.24 0.25 0.24 0.21 0.19 0.24 0.20 0.23 0.19 0.18 0.21 0.27 0.27 0.41 0.37 0.35 0.37 0.33 0.32 0.30 0.35 0.32 0.27 0.21 0.23 0.21 0.22 0.18 0.17 0.23 0.29 0.27 0.24 0.20 0.18 0.17 0.28 0.31 0.33 0.42 0.49 0.53 0.58 0.63 0.72 0.86 1.00 1.12 1.17 1.19
0.66 0.63 0.63 0.64 0.64 0.64 0.60 0.60 0.59 0.57 0.51 0.45 0.33 0.26 0.18 0.18 0.20 0.18 0.19 0.20 0.21 0.22 0.21 0.23 0.20 0.19 0.18 0.18 0.19 0.20 0.18 0.17 0.18 0.17 0.17 0.19 0.20 0.20 0.20 0.22 0.24 0.24 0.24 0.15 0.20 0.21 0.22 0.23 0.35 0.34 0.35 0.41 0.36 0.40 0.42 0.41 0.39 0.37 0.36 0.39 0.32 0.26 0.31 0.27 0.32 0.26 0.25 0.24 0.23 0.28 0.21 0.23 0.21 0.32 0.36 0.29 0.27 0.29 0.35 0.43 0.48 0.54 0.62 0.74 0.89 1.02 1.14 1.17
0.65 0.62 0.63 0.59 0.57 0.58 0.59 0.59 0.59 0.56 0.49 0.39 0.29 0.22 0.20 0.23 0.19 0.22 0.23 0.25 0.22 0.20 0.20 0.21 0.20 0.18 0.17 0.18 0.19 0.17 0.21 0.16 0.18 0.16 0.18 0.18 0.18 0.20 0.22 0.23 0.22 0.25 0.22 0.20 0.27 0.17 0.21 0.18 0.33 0.37 0.37 0.35 0.39 0.42 0.39 0.45 0.28 0.37 0.36 0.31 0.33 0.39 0.34 0.27 0.28 0.30 0.32 0.29 0.24 0.31 0.31 0.28 0.31 0.30 0.32 0.29 0.25 0.27 0.30 0.32 0.34 0.39 0.53 0.67 0.78 0.92 1.05 1.13
0.60 0.60 0.57 0.59 0.56 0.59 0.59 0.60 0.59 0.54 0.46 0.36 0.27 0.22 0.25 0.26 0.29 0.27 0.28 0.25 0.24 0.24 0.22 0.17 0.20 0.17 0.18 0.17 0.18 0.18 0.19 0.19 0.19 0.15 0.15 0.17 0.21 0.22 0.22 0.23 0.26 0.24 0.26 0.25 0.23 0.25 0.18 0.22 0.30 0.29 0.30 0.37 0.41 0.41 0.42 0.41 0.43 0.43 0.33 0.35 0.44 0.47 0.42 0.34 0.23 0.24 0.22 0.18 0.20 0.25 0.24 0.26 0.24 0.18 0.24 0.22 0.20 0.20 0.21 0.26 0.30 0.34 0.42 0.55 0.71 0.84 0.97 1.04
0.60 0.57 0.56 0.55 0.57 0.60 0.60 0.60 0.55 0.47 0.41 0.33 0.27 0.26 0.30 0.27 0.33 0.30 0.31 0.28 0.26 0.25 0.22 0.20 0.21 0.22 0.20 0.18 0.19 0.19 0.20 0.16 0.18 0.16 0.15 0.16 0.17 0.27 0.23 0.22 0.27 0.23 0.25 0.29 0.23 0.25 0.23 0.14 0.19 0.28 0.31 0.36 0.38 0.38 0.37 0.41 0.44 0.41 0.41 0.48 0.36 0.32 0.32 0.38 0.34 0.24 0.22 0.18 0.19 0.21 0.23 0.21 0.25 0.23 0.25 0.22 0.19 0.17 0.18 0.20 0.23 0.29 0.37 0.47 0.60 0.74 0.87 0.94
0.64 0.56 0.49 0.55 0.62 0.60 0.57 0.57 0.51 0.44 0.37 0.30 0.27 0.25 0.30 0.32 0.34 0.32 0.32 0.30 0.28 0.25 0.22 0.23 0.21 0.24 0.22 0.21 0.21 0.22 0.21 0.16 0.19 0.18 0.15 0.20 0.16 0.27 0.24 0.24 0.23 0.25 0.24 0.26 0.24 0.25 0.26 0.17 0.19 0.30 0.28 0.35 0.34 0.32 0.24 0.33 0.39 0.43 0.48 0.48 0.50 0.41 0.37 0.34 0.34 0.32 0.30 0.23 0.24 0.23 0.25 0.20 0.26 0.23 0.26 0.27 0.25 0.22 0.21 0.21 0.21 0.23 0.31 0.44 0.55 0.67 0.79 0.82
0.56 0.52 0.46 0.60 0.61 0.60 0.57 0.55 0.48 0.40 0.35 0.29 0.31 0.31 0.36 0.31 0.34 0.35 0.34 0.31 0.27 0.27 0.25 0.24 0.26 0.22 0.25 0.23 0.23 0.21 0.25 0.21 0.20 0.20 0.18 0.21 0.17 0.27 0.24 0.28 0.23 0.23 0.23 0.23 0.22 0.27 0.22 0.26 0.16 0.27 0.32 0.29 0.24 0.30 0.26 0.31 0.33 0.33 0.37 0.39 0.44 0.43 0.44 0.43 0.41 0.36 0.30 0.25 0.25 0.25 0.24 0.25 0.29 0.30 0.24 0.27 0.27 0.27 0.25 0.24 0.24 0.27 0.30 0.39 0.55 0.68 0.76 0.79
0.62 0.50 0.48 0.61 0.59 0.58 0.58 0.49 0.41 0.35 0.32 0.35 0.37 0.35 0.37 0.33 0.35 0.35 0.35 0.35 0.31 0.33 0.28 0.26 0.26 0.24 0.25 0.23 0.23 0.27 0.23 0.24 0.24 0.22 0.22 0.21 0.20 0.20 0.31 0.26 0.26 0.23 0.23 0.21 0.20 0.27 0.22 0.23 0.19 0.22 0.24 0.24 0.25 0.35 0.37 0.37 0.40 0.39 0.37 0.34 0.39 0.39 0.37 0.34 0.32 0.40 0.35 0.29 0.25 0.26 0.25 0.34 0.39 0.37 0.31 0.27 0.27 0.26 0.27 0.24 0.26 0.30 0.30 0.36 0.54 0.65 0.69 0.76
0.53 0.41 0.44 0.61 0.59 0.56 0.49 0.37 0.36 0.41 0.36 0.33 0.32 0.36 0.34 0.40 0.35 0.34 0.35 0.36 0.34 0.31 0.34 0.30 0.30 0.28 0.27 0.26 0.27 0.27 0.26 0.24 0.24 0.23 0.23 0.21 0.28 0.23 0.34 0.31 0.28 0.27 0.22 0.21 0.23 0.29 0.26 0.28 0.25 0.20 0.22 0.24 0.29 0.38 0.41 0.39 0.39 0.41 0.41 0.36 0.41 0.41 0.44 0.39 0.30 0.33 0.35 0.34 0.34 0.31 0.29 0.30 0.45 0.41 0.35 0.32 0.28 0.25 0.24 0.27 0.26 0.26 0.31 0.35 0.45 0.57 0.68 0.76
0.50 0.44 0.60 0.60 0.58 0.52 0.43 0.35 0.38 0.36 0.33 0.36 0.42 0.39 0.41 0.37 0.36 0.36 0.35 0.35 0.33 0.35 0.32 0.31 0.31 0.28 0.31 0.29 0.29 0.27 0.28 0.26 0.26 0.24 0.26 0.28 0.28 0.32 0.36 0.30 0.29 0.28 0.26 0.26 0.25 0.30 0.30 0.21 0.19 0.20 0.23 0.24 0.27 0.32 0.37 0.38 0.37 0.37 0.41 0.43 0.42 0.40 0.42 0.42 0.41 0.44 0.40 0.37 0.34 0.31 0.27 0.30 0.44 0.47 0.44 0.35 0.32 0.30 0.32 0.33 0.33 0.35 0.36 0.37 0.41 0.50 0.62 0.73
0.53 0.50 0.51 0.58 0.59 0.52 0.41 0.30 0.31 0.33 0.35 0.38 0.38 0.35 0.40 0.38 0.38 0.36 0.35 0.36 0.34 0.33 0.31 0.31 0.33 0.35 0.30 0.34 0.31 0.26 0.31 0.22 0.28 0.27 0.27 0.33 0.29 0.41 0.37 0.33 0.32 0.30 0.26 0.29 0.24 0.36 0.21 0.24 0.20 0.16 0.17 0.18 0.18 0.24 0.29 0.38 0.39 0.33 0.35 0.41 0.44 0.45 0.47 0.47 0.47 0.48 0.39 0.40 0.39 0.34 0.26 0.31 0.40 0.45 0.47 0.40 0.33 0.32 0.33 0.33 0.32 0.30 0.35 0.42 0.55 0.57 0.63 0.73
0.55 0.60 0.52 0.53 0.56 0.49 0.36 0.39 0.35 0.33 0.34 0.34 0.34 0.33 0.35 0.37 0.40 0.39 0.37 0.35 0.38 0.36 0.34 0.33 0.35 0.34 0.32 0.35 0.30 0.31 0.32 0.29 0.25 0.30 0.28 0.29 0.28 0.40 0.37 0.34 0.37 0.31 0.34 0.36 0.29 0.34 0.26 0.27 0.26 0.17 0.12 0.11 0.12 0.14 0.19 0.25 0.29 0.33 0.38 0.43 0.43 0.42 0.43 0.43 0.37 0.41 0.34 0.39 0.42 0.38 0.35 0.40 0.49 0.53 0.47 0.42 0.35 0.33 0.34 0.35 0.37 0.35 0.36 0.40 0.46 0.64 0.82 0.86
0.46 0.38 0.45 0.47 0.51 0.47 0.45 0.47 0.43 0.37 0.35 0.34 0.32 0.33 0.34 0.33 0.37 0.40 0.39 0.37 0.38 0.36 0.35 0.34 0.35 0.34 0.32 0.33 0.30 0.30 0.31 0.34 0.30 0.28 0.32 0.32 0.35 0.37 0.40 0.37 0.37 0.35 0.36 0.34 0.33 0.33 0.27 0.27 0.27 0.26 0.22 0.19 0.23 0.36 0.41 0.42 0.38 0.34 0.36 0.38 0.38 0.41 0.42 0.42 0.43 0.40 0.35 0.39 0.40 0.43 0.44 0.43 0.44 0.47 0.44 0.40 0.36 0.39 0.52 0.61 0.60 0.51 0.52 0.50 0.53 0.56 0.62 0.69
0.55 0.40 0.40 0.36 0.46 0.43 0.41 0.44 0.40 0.40 0.35 0.38 0.30 0.35 0.31 0.33 0.33 0.37 0.39 0.32 0.38 0.35 0.33 0.35 0.34 0.30 0.32 0.31 0.29 0.29 0.32 0.31 0.34 0.33 0.32 0.32 0.34 0.37 0.40 0.39 0.37 0.37 0.37 0.33 0.37 0.32 0.28 0.23 0.24 0.25 0.24 0.24 0.26 0.35 0.40 0.38 0.34 0.35 0.35 0.34 0.38 0.39 0.39 0.38 0.36 0.35 0.46 0.42 0.35 0.44 0.50 0.44 0.44 0.45 0.50 0.50 0.52 0.49 0.55 0.61 0.61 0.57 0.55 0.52 0.54 0.58 0.56 0.59
0.43 0.46 0.50 0.48 0.39 0.33 0.37 0.36 0.41 0.39 0.40 0.40 0.34 0.37 0.31 0.30 0.30 0.28 0.35 0.37 0.35 0.38 0.30 0.36 0.35 0.34 0.33 0.31 0.31 0.26 0.30 0.31 0.32 0.30 0.35 0.34 0.33 0.37 0.34 0.39 0.34 0.37 0.37 0.34 0.38 0.30 0.26 0.21 0.24 0.24 0.22 0.23 0.22 0.24 0.35 0.37 0.35 0.35 0.36 0.35 0.34 0.37 0.39 0.36 0.37 0.42 0.47 0.39 0.34 0.46 0.53 0.49 0.47 0.48 0.49 0.50 0.53 0.50 0.52 0.58 0.60 0.71 0.74 0.73 0.72 0.73 0.68 0.60
0.54 0.52 0.51 0.56 0.41 0.43 0.42 0.41 0.43 0.39 0.38 0.38 0.35 0.33 0.30 0.30 0.29 0.30 0.31 0.31 0.33 0.33 0.33 0.26 0.29 0.32 0.32 0.35 0.33 0.29 0.31 0.26 0.28 0.34 0.34 0.34 0.34 0.34 0.32 0.35 0.38 0.39 0.36 0.33 0.35 0.37 0.29 0.23 0.24 0.24 0.22 0.22 0.21 0.19 0.23 0.30 0.33 0.33 0.34 0.36 0.36 0.35 0.37 0.39 0.39 0.41 0.42 0.41 0.47 0.53 0.55 0.53 0.54 0.51 0.61 0.58 0.58 0.56 0.61 0.65 0.71 0.76 0.71 0.70 0.70 0.68 0.70 0.74
0.49 0.48 0.45 0.54 0.49 0.45 0.45 0.44 0.41 0.39 0.35 0.37 0.33 0.30 0.33 0.30 0.29 0.31 0.34 0.31 0.27 0.30 0.37 0.29 0.29 0.30 0.32 0.33 0.34 0.29 0.31 0.33 0.32 0.28 0.35 0.34 0.34 0.35 0.33 0.33 0.34 0.38 0.36 0.31 0.32 0.38 0.27 0.22 0.25 0.24 0.22 0.20 0.22 0.22 0.22 0.23 0.28 0.29 0.31 0.34 0.35 0.36 0.37 0.39 0.39 0.39 0.41 0.42 0.46 0.48 0.49 0.50 0.55 0.76 0.66 0.64 0.57 0.58 0.60 0.70 0.70 0.71 0.70 0.68 0.65 0.67 0.70 0.74
0.64 0.65 0.63 0.50 0.42 0.44 0.45 0.43 0.40 0.37 0.34 0.35 0.34 0.32 0.33 0.32 0.32 0.33 0.32 0.37 0.33 0.29 0.31 0.28 0.31 0.31 0.35 0.33 0.33 0.33 0.36 0.36 0.35 0.35 0.36 0.36 0.30 0.36 0.32 0.35 0.38 0.32 0.36 0.33 0.33 0.33 0.30 0.24 0.28 0.25 0.20 0.18 0.20 0.19 0.19 0.22 0.23 0.25 0.27 0.31 0.34 0.34 0.33 0.36 0.37 0.40 0.39 0.40 0.48 0.49 0.46 0.47 0.54 0.71 0.70 0.64 0.62 0.57 0.57 0.63 0.69 0.71 0.69 0.66 0.66 0.67 0.71 0.73
0.71 0.72 0.70 0.58 0.41 0.46 0.42 0.44 0.41 0.39 0.31 0.37 0.36 0.35 0.32 0.33 0.35 0.36 0.29 0.37 0.36 0.37 0.36 0.34 0.34 0.33 0.34 0.33 0.32 0.35 0.39 0.38 0.37 0.37 0.37 0.37 0.38 0.36 0.36 0.34 0.34 0.32 0.31 0.31 0.35 0.30 0.30 0.27 0.24 0.22 0.19 0.17 0.19 0.21 0.21 0.20 0.19 0.16 0.19 0.27 0.32 0.35 0.36 0.39 0.42 0.53 0.57 0.60 0.51 0.43 0.47 0.67 0.66 0.70 0.64 0.63 0.63 0.62 0.59 0.61 0.61 0.63 0.67 0.68 0.68 0.70 0.73 0.76
Wind_Speed
16 16 16 16 16 16 16 16 16 16 16 15 15 15 15 15 15 14 14 14 14 14 13 13 13 12 12 12 11 11 10 11 10 11 12 11 10 11 11 11 14 17 16 17 17 17 16 16 15 15 15 15 15 15 15 14 13 12 11 10 9 8 7 6 5 4 5 6 7 9 10 10 9 9 8 8 8 8 9 8 7 6 6 7 9 14 17 17
16 16 17 17 17 17 16 16 16 16 16 16 15 15 15 15 15 15 15 15 14 14 14 14 13 13 12 12 12 11 11 11 11 12 13 12 10 10 12 12 13 17 17 17 19 18 17 17 17 17 15 14 14 15 15 14 14 13 11 11 10 8 7 7 6 5 5 5 7 9 10 10 9 10 9 9 8 9 9 8 8 7 7 8 10 15 17 18
17 17 17 17 17 17 17 16 16 16 16 16 16 16 16 15 16 15 15 15 15 15 14 14 13 13 12 12 12 11 11 11 11 10 10 11 12 11 12 13 14 17 18 18 19 19 18 17 17 17 16 15 15 15 15 14 14 14 12 11 10 9 9 8 8 6 5 5 7 8 9 10 9 9 9 9 8 9 8 8 8 8 9 10 11 15 18 19
17 17 17 17 18 17 17 17 17 16 16 16 16 16 16 16 16 16 16 15 15 15 15 14 14 13 12 11 11 11 12 12 11 9 9 11 12 12 13 14 15 17 18 18 19 19 18 17 17 16 15 15 15 16 16 15 14 13 13 12 9 10 10 10 9 7 6 6 6 8 10 10 10 10 10 9 9 8 8 8 9 10 11 11 13 15 18 19
18 17 18 18 18 18 17 17 17 17 17 16 16 17 16 16 16 16 16 16 16 15 15 15 14 13 12 12 12 12 12 12 11 9 10 11 12 13 14 15 16 17 17 18 19 19 18 18 18 17 15 15 15 16 17 17 15 14 14 13 10 10 10 10 10 9 7 7 6 7 9 10 10 10 10 10 8 6 7 9 9 10 12 13 14 16 18 19
18 18 18 18 18 18 18 17 17 17 17 17 17 17 17 17 17 17 17 16 16 16 16 15 14 14 13 13 13 13 13 12 10 10 11 11 12 13 15 17 17 17 17 18 19 19 19 19 19 18 17 16 16 16 16 17 17 14 14 14 13 12 11 11 12 10 9 9 7 8 9 10 10 10 10 10 8 4 6 9 10 11 13 14 15 16 18 19
19 19 19 19 19 19 18 18 18 18 17 17 18 18 18 18 18 18 17 17 16 16 16 15 14 14 14 14 14 14 15 13 11 11 11 10 11 12 15 17 18 17 17 18 19 20 20 20 20 19 18 17 17 17 16 17 18 16 14 14 14 14 13 13 12 11 11 11 9 8 9 11 11 10 10 11 9 5 6 9 10 11 13 14 15 17 17 18
20 20 20 20 20 19 19 19 19 18 18 18 18 18 18 18 18 18 18 17 17 16 15 14 14 13 14 14 15 16 16 14 13 12 11 10 11 12 15 17 18 18 18 19 20 20 20 21 21 19 18 18 17 17 17 16 18 18 17 15 14 14 15 14 13 12 12 12 10 9 10 11 11 10 10 11 10 7 8 10 10 11 13 14 15 17 17 18
20 21 21 21 20 20 20 19 19 19 19 19 19 19 19 19 19 19 18 17 16 16 14 14 14 14 14 15 16 16 14 14 14 14 12 11 11 13 15 17 19 19 19 19 20 21 20 21 21 19 18 18 17 18 18 17 16 17 18 17 15 15 15 15 14 14 12 13 12 10 11 11 11 10 10 11 11 9 10 11 11 12 13 14 15 16 18 18
21 21 21 21 21 20 20 20 19 19 19 20 20 20 20 20 20 19 18 16 15 14 14 14 14 14 15 15 16 15 13 14 15 14 13 13 13 15 16 17 19 19 19 20 20 22 21 20 21 19 17 17 18 18 19 19 14 14 17 17 17 16 16 16 15 15 14 13 14 12 11 11 11 11 10 11 12 11 11 12 12 12 13 14 15 16 17 18
22 22 22 22 21 21 20 20 19 20 19 20 20 20 20 20 19 18 17 16 15 14 14 15 15 15 15 15 16 15 14 15 15 14 14 14 14 16 18 18 19 20 19 20 21 22 22 20 20 18 16 16 18 19 20 20 17 14 15 15 17 17 18 19 18 17 15 14 15 14 12 12 13 12 10 11 13 12 12 12 12 12 13 14 15 15 16 17
23 23 23 22 22 21 21 20 20 20 20 20 20 20 19 19 17 16 15 15 15 15 15 15 15 15 15 15 15 14 14 15 15 15 15 15 16 17 18 19 20 20 19 20 21 22 22 20 20 19 16 15 17 17 18 20 20 18 16 15 15 16 18 20 20 19 17 15 14 14 14 14 15 14 12 12 13 13 13 13 13 12 12 13 14 15 15 17
24 24 23 23 23 22 21 21 20 20 20 21 20 20 19 17 16 15 14 15 14 14 14 15 15 14 15 15 14 14 15 15 15 16 16 16 17 17 19 20 21 20 20 21 21 22 22 21 21 21 18 16 16 15 15 18 20 20 18 17 15 15 17 19 20 20 19 17 15 15 14 14 15 16 14 13 14 14 13 13 13 13 12 13 14 14 15 17
24 24 24 24 23 22 22 21 21 21 21 21 21 20 18 17 15 14 15 15 14 13 13 14 14 14 15 14 13 14 15 16 16 16 16 17 17 18 19 20 22 21 19 21 21 21 22 21 22 21 20 18 16 15 16 17 18 19 18 17 16 15 16 18 20 20 19 18 17 17 15 13 15 17 16 15 15 15 14 14 14 14 13 13 14 15 16 17
25 25 25 24 23 23 22 22 22 22 22 22 21 20 18 16 14 14 15 14 13 12 12 13 13 14 15 14 14 14 14 16 17 17 17 18 18 18 19 20 22 22 20 20 20 21 21 21 22 21 21 20 18 17 18 17 17 18 18 17 17 17 16 16 19 20 20 18 18 18 15 13 14 16 16 16 16 15 14 15 15 15 15 14 14 15 16 17
26 26 25 24 23 23 22 22 22 22 22 22 21 20 18 16 15 15 15 14 13 12 12 13 14 15 15 13 14 14 14 15 16 16 17 18 19 19 19 20 22 22 22 21 20 21 21 22 22 22 20 20 20 19 18 18 18 19 19 18 18 19 18 16 18 20 20 18 19 20 16 13 13 14 16 17 17 16 15 15 16 15 15 15 15 15 16 16
26 26 25 24 23 23 22 22 22 22 22 22 21 20 18 16 15 15 15 14 14 14 14 14 14 15 14 13 14 14 14 14 15 16 17 19 20 19 20 20 21 22 22 22 22 22 22 22 22 22 21 20 20 20 19 20 20 19 19 19 18 19 19 18 17 20 22 19 19 21 18 15 14 15 17 17 17 17 16 16 16 16 16 16 15 16 16 17
27 26 26 25 24 23 23 22 22 22 22 22 21 19 18 17 16 16 15 14 15 15 15 14 14 15 14 13 14 15 15 15 15 15 17 18 20 20 20 20 21 22 23 23 24 24 23 23 22 21 22 22 21 21 21 20 20 21 20 19 19 19 19 20 17 18 22 22 20 21 20 18 16 15 16 18 18 18 17 17 16 16 16 16 16 16 16 17
27 27 26 25 24 23 23 22 22 22 22 22 20 18 17 17 17 16 16 15 15 15 15 15 15 15 15 15 15 16 16 15 15 15 16 18 20 21 21 21 22 23 23 23 25 26 24 23 23 23 22 23 23 23 23 20 19 21 22 21 21 20 19 21 18 15 20 22 22 22 20 19 19 17 17 18 18 19 18 17 16 16 17 17 17 16 17 17
27 27 27 26 25 24 23 23 22 22 22 21 19 18 17 17 17 16 16 16 15 15 16 16 16 16 17 17 16 16 16 15 14 14 15 18 20 21 21 22 23 23 24 24 24 26 26 24 24 24 23 23 24 24 24 22 18 19 21 21 22 21 19 21 20 17 18 20 21 23 21 20 20 19 18 19 19 19 19 18 17 17 17 17 18 18 18 18
28 28 27 26 25 24 24 23 23 22 21 19 17 15 15 16 16 16 18 17 15 16 17 16 16 17 17 17 17 16 16 16 14 13 15 18 20 21 21 23 23 24 24 24 24 25 27 27 26 26 24 23 24 24 25 24 21 20 21 21 22 22 21 21 21 19 19 20 20 21 22 21 21 21 20 20 21 20 20 20 19 19 18 18 18 19 18 17
28 28 28 27 26 25 24 23 22 22 20 17 15 13 14 16 17 18 19 18 17 17 17 17 17 17 17 17 17 16 17 17 14 13 15 18 22 22 22 24 24 24 25 25 24 25 27 28 27 25 25 24 23 24 25 25 23 22 22 22 22 23 23 22 22 20 20 20 20 21 21 21 21 22 21 21 22 21 21 21 20 20 19 18 19 19 18 18
28 28 28 27 26 25 24 23 22 20 18 16 14 14 15 16 17 18 18 18 17 16 17 17 17 16 16 17 17 17 18 17 16 15 15 19 22 22 23 25 25 24 27 27 26 25 26 27 27 26 25 25 24 23 24 24 23 23 23 23 23 22 23 23 22 23 22 21 21 22 21 21 21 22 23 22 23 22 21 22 21 21 20 20 19 18 19 19
28 28 27 27 26 24 23 22 20 18 17 16 15 15 17 17 18 17 17 18 17 16 16 16 16 16 16 17 18 18 17 17 17 16 16 19 20 21 24 25 25 26 27 29 29 28 26 24 25 27 26 26 26 25 25 24 23 25 25 24 23 23 24 23 20 21 23 24 24 23 21 22 22 23 23 23 23 23 23 22 22 22 22 21 20 19 19 20
28 28 27 26 25 23 22 20 17 17 17 15 16 17 18 18 17 17 17 17 16 15 15 15 16 15 16 17 17 18 18 17 17 17 17 19 20 21 23 25 26 26 27 29 30 29 28 24 24 27 27 27 28 27 27 26 24 24 26 26 26 24 24 24 22 20 22 24 25 25 24 22 24 25 24 23 23 24 24 23 23 23 22 21 20 20 20 20
28 27 27 26 24 23 21 17 16 18 17 15 17 18 18 18 17 16 16 16 15 14 14 15 15 14 15 16 16 17 18 17 17 18 18 19 21 22 22 24 26 27 27 28 28 28 29 27 25 27 28 28 29 28 28 27 25 24 24 26 28 26 24 24 24 24 23 22 23 26 26 23 23 25 26 26 25 25 25 25 24 24 23 22 21 21 21 20
27 27 26 25 23 21 18 16 18 18 16 16 18 19 18 17 15 14 15 16 14 13 13 14 14 13 14 15 16 16 17 16 17 17 17 18 20 22 23 24 25 27 27 27 28 28 29 29 27 28 28 28 29 28 28 28 27 24 22 24 27 29 28 26 24 25 25 23 22 24 25 24 23 23 24 27 27 26 26 26 25 25 24 23 23 22 22 21
27 26 26 24 22 19 16 16 17 16 16 17 18 18 16 14 12 12 13 14 12 12 12 12 13 14 14 15 14 14 15 16 17 16 17 19 20 21 23 24 24 27 28 29 29 27 29 31 29 28 29 28 28 28 28 29 28 25 22 22 25 27 28 28 26 25 25 25 26 25 24 24 25 24 22 24 27 28 27 27 27 26 25 25 24 24 23 22
26 26 24 23 20 18 16 16 16 16 16 17 17 17 14 12 11 11 13 13 11 11 12 13 14 14 15 14 13 13 14 15 16 17 17 18 18 20 22 22 24 26 28 30 31 28 27 30 31 31 30 29 29 28 27 29 28 26 24 23 23 24 26 27 27 26 25 27 29 28 27 24 24 26 25 25 26 27 26 26 27 27 26 26 25 25 24 23
26 25 23 21 19 17 17 16 15 16 17 17 16 15 12 11 11 12 13 12 10 10 12 13 13 14 14 13 12 13 13 14 15 17 17 18 18 19 20 21 23 25 27 30 32 31 28 27 29 31 31 30 30 29 28 28 27 27 27 25 24 24 24 25 26 26 26 28 29 30 30 26 24 25 26 26 27 27 26 26 26 27 27 27 26 26 25 24
26 24 22 20 17 16 17 16 16 17 17 16 15 13 11 11 12 13 12 11 11 11 11 11 12 13 13 13 13 13 13 13 14 15 15 16 17 18 19 20 22 23 26 28 30 32 32 29 28 29 30 30 30 30 30 30 28 27 27 26 25 24 23 24 25 26 27 27 28 30 31 30 27 25 25 25 26 27 28 27 27 27 27 27 27 26 26 25
26 24 21 18 17 16 16 17 18 18 16 15 14 12 11 11 12 12 10 10 11 10 9 10 10 11 12 12 12 12 13 13 14 14 14 15 15 16 17 18 19 21 24 26 27 30 32 33 31 30 31 32 31 29 29 30 30 29 27 27 26 25 24 24 25 26 27 26 25 27 30 31 29 27 26 26 25 26 28 28 28 27 27 28 28 27 26 26
25 22 18 17 16 16 16 17 17 16 15 13 12 10 11 11 10 9 9 9 10 8 8 9 9 9 11 11 11 11 12 12 13 14 15 16 16 15 16 16 18 21 21 22 25 26 28 31 33 33 31 32 33 30 28 29 31 31 29 28 28 26 25 25 25 25 25 25 25 26 26 28 28 27 29 30 27 25 26 28 29 28 27 28 28 28 27 27
25 20 16 16 16 15 15 15 14 14 13 11 10 9 10 11 9 8 8 8 8 8 8 9 10 10 9 9 10 10 11 11 11 13 14 16 17 16 16 15 17 20 21 22 23 25 26 26 30 32 30 31 35 32 28 27 29 33 31 29 29 28 26 24 24 24 24 23 25 27 25 24 24 23 26 29 30 29 27 26 27 27 27 27 27 28 28 28
23 17 14 15 15 14 14 14 13 12 10 9 9 9 9 9 8 8 8 8 8 9 9 10 11 11 9 9 9 9 10 11 11 12 13 14 16 17 17 17 17 18 21 22 22 24 27 24 24 27 28 30 33 33 30 27 26 30 31 31 31 30 28 25 23 24 23 22 24 26 25 23 21 19 20 23 27 30 30 29 29 28 28 28 28 28 29 28
20 15 13 14 15 14 14 12 11 9 8 8 8 8 8 8 8 8 9 9 9 9 11 11 11 11 11 10 10 9 11 12 12 12 13 13 14 15 16 18 18 18 19 21 20 21 25 24 23 26 29 30 30 30 32 31 27 26 30 33 31 29 29 27 26 25 23 23 24 25 26 24 22 21 23 24 24 26 29 30 31 32 31 30 29 28 29 29
18 14 12 14 15 14 13 11 10 7 7 7 8 7 7 7 8 8 9 10 10 10 12 11 10 11 12 12 12 11 13 14 13 13 13 13 14 14 15 16 17 18 19 21 21 20 23 24 24 27 30 30 30 30 32 35 31 27 28 31 30 30 30 28 26 25 25 26 24 25 27 26 24 21 21 26 28 27 27 28 29 31 33 33 31 30 30 29
16 12 10 14 16 14 12 10 9 7 7 7 6 5 6 6 7 8 9 9 10 10 12 11 11 12 13 13 13 13 14 14 14 14 15 14 14 14 15 16 16 18 20 22 22 21 22 25 25 27 29 29 30 31 32 35 36 33 28 27 29 32 32 30 29 27 27 26 24 26 28 27 25 21 17 22 27 27 27 28 28 30 32 33 33 33 32 31
15 11 10 14 16 13 11 10 8 7 6 5 4 4 5 5 6 7 8 9 9 10 11 11 11 12 12 13 14 14 14 15 15 16 15 15 15 15 15 16 17 18 19 22 23 22 23 24 24 25 27 28 29 31 32 33 36 37 33 29 30 31 31 32 31 29 27 25 24 25 26 25 26 24 20 19 21 23 25 26 27 29 30 31 32 33 33 32
13 10 10 15 15 12 10 8 7 6 4 4 4 4 5 5 6 7 8 9 9 10 10 10 11 12 12 13 14 14 14 15 17 17 17 17 17 16 16 17 17 18 19 21 23 23 23 25 26 24 25 27 29 31 32 31 31 35 37 35 33 31 30 31 32 32 29 26 24 24 24 23 23 24 24 22 20 20 22 23 25 27 29 30 31 32 32 32
12 9 11 15 14 11 9 7 6 5 4 4 4 4 5 6 7 7 8 9 9 10 11 11 12 13 13 14 14 14 15 17 17 17 18 18 18 18 17 17 18 18 19 21 22 22 23 25 28 27 26 27 28 28 29 29 28 30 34 37 37 34 31 30 31 34 33 29 26 24 23 21 18 19 22 22 21 21 21 22 23 26 28 29 30 31 31 31
12 9 12 15 13 10 8 6 6 6 5 5 5 5 6 7 7 7 8 9 9 10 11 12 13 14 15 15 15 16 17 18 18 18 18 18 18 19 18 19 20 19 19 20 21 22 23 25 27 29 28 29 29 28 29 31 31 31 32 33 36 36 34 32 30 31 33 32 30 27 25 22 18 17 19 19 20 21 21 21 22 24 26 28 30 31 31 31
11 10 12 14 12 9 7 6 6 7 6 6 6 6 7 7 8 8 9 10 10 11 12 13 14 15 15 16 17 19 19 19 20 20 20 20 20 19 19 20 20 20 20 20 20 21 23 25 27 28 28 30 31 31 31 32 32 33 33 33 33 35 35 33 29 27 29 31 31 29 27 25 21 19 20 19 18 19 20 20 20 22 23 25 28 30 31 31
10 10 11 14 12 9 7 7 7 7 7 6 6 7 7 8 10 10 10 11 12 12 13 14 15 16 16 18 19 20 19 19 20 19 20 21 20 19 21 21 21 21 20 20 20 21 22 24 26 27 27 27 29 30 31 32 32 33 34 33 34 34 34 33 31 29 28 29 29 28 27 25 22 21 22 21 20 19 19 20 21 22 22 23 24 27 29 30
10 9 10 12 12 10 8 8 8 7 6 7 7 8 8 9 10 11 11 12 12 13 14 14 15 17 18 19 20 20 20 19 19 19 20 21 21 20 21 21 21 22 21 21 22 22 23 24 25 27 27 26 25 26 28 29 30 33 34 33 34 35 35 35 34 33 32 31 29 27 25 22 20 20 21 22 21 19 18 18 19 20 21 22 23 24 26 26
10 9 10 10 10 11 10 9 9 8 7 7 8 9 10 9 9 11 12 12 12 14 14 15 16 17 18 19 19 19 19 19 19 19 19 20 21 20 20 21 22 23 22 23 24 24 24 25 27 29 30 28 25 23 25 26 27 31 33 33 34 35 35 35 36 36 36 34 34 32 28 23 21 20 19 19 19 18 16 16 16 17 18 20 22 23 25 26
10 10 10 9 9 10 10 10 10 9 8 9 9 10 11 11 11 11 12 12 13 14 14 15 16 16 16 17 17 16 16 17 17 18 19 20 20 20 21 22 23 23 23 24 25 25 25 26 28 30 32 33 30 28 28 29 30 32 33 33 34 35 35 36 37 37 35 34 36 36 31 28 26 22 16 16 18 17 16 16 16 17 18 19 20 22 24 26
10 9 10 9 9 9 10 10 10 10 10 10 9 10 11 11 12 12 12 13 14 14 14 14 14 15 14 14 14 13 13 13 14 14 15 16 17 18 20 21 22 23 23 24 24 24 25 27 28 30 32 32 32 31 31 31 32 34 35 36 36 36 36 36 38 37 35 34 35 34 31 29 29 25 18 17 18 18 17 17 18 19 19 19 20 21 22 23
10 9 10 10 9 10 10 10 10 10 11 10 10 11 12 12 12 13 13 14 14 14 14 14 14 13 12 10 10 10 10 10 11 11 11 12 14 15 16 18 20 21 22 23 23 23 25 26 27 29 30 31 31 32 32 33 34 35 36 37 37 37 37 37 38 38 37 37 36 34 32 32 30 27 22 20 19 19 19 19 18 19 20 20 20 21 21 21
10 9 9 9 10 10 10 11 11 10 11 11 11 12 12 12 13 14 14 14 14 13 14 14 13 12 10 9 9 9 9 10 11 11 11 12 12 13 13 15 16 18 21 22 22 23 24 25 26 26 28 30 30 31 32 33 35 36 38 38 39 39 39 38 38 38 38 38 37 36 36 35 31 26 25 24 22 20 21 21 20 20 20 20 21 21 21 21
10 10 9 9 9 10 10 11 11 10 10 11 12 12 13 13 14 15 14 13 13 14 14 14 12 10 9 8 8 9 9 10 12 13 14 14 14 14 13 13 13 15 18 20 22 23 24 25 25 26 27 28 28 29 31 32 34 37 39 39 40 40 39 38 37 37 38 38 37 37 37 36 32 28 27 26 25 24 24 23 21 21 21 21 22 22 22 22
10 10 10 9 9 10 10 10 11 11 11 12 12 12 13 13 14 15 14 12 12 13 13 12 10 9 8 8 8 9 10 11 12 14 15 16 17 17 17 17 17 17 17 18 20 23 24 24 24 25 26 27 27 27 28 30 32 36 38 39 40 40 40 38 37 36 37 36 37 37 35 33 31 29 28 27 26 26 25 24 23 23 22 23 23 24 24 24
Wind_Direction
325 323 322 320 318 316 314 312 310 308 306 304 303 302 300 299 298 296 294 292 290 288 287 287 286 282 276 273 270 269 265 260 255 249 245 245 244 236 229 224 215 210 207 202 197 196 196 201 202 199 202 206 211 212 209 212 214 213 214 217 219 217 212 203 199 197 192 181 172 179 184 182 175 173 172 171 173 167 170 172 164 165 165 156 157 158 156 161
326 324 322 320 318 316 315 313 311 308 306 304 302 301 299 297 296 295 294 291 289 288 285 285 283 279 274 271 269 266 263 257 254 251 246 242 245 241 230 224 215 209 206 201 198 196 195 201 201 200 204 206 209 210 208 210 212 214 215 218 220 215 207 202 200 193 194 186 178 183 187 187 181 176 177 180 177 173 175 175 171 164 161 157 159 163 159 161
326 324 322 319 318 316 314 313 310 308 306 305 302 301 299 297 296 294 293 290 288 287 285 283 280 275 272 269 267 264 260 256 250 246 246 244 243 242 230 220 213 208 206 203 202 200 199 200 199 201 206 209 209 208 209 209 211 216 218 219 219 214 206 203 204 202 197 191 187 186 187 190 185 179 183 185 179 180 183 177 176 169 165 166 165 167 164 163
327 324 322 320 317 315 314 312 310 308 306 304 302 301 299 297 295 293 292 290 287 286 284 282 276 272 270 268 266 261 258 253 243 242 254 253 245 239 227 216 209 206 207 207 205 205 204 202 200 203 209 213 212 210 211 208 209 216 217 219 218 213 210 204 203 204 199 194 194 189 189 192 187 185 189 190 185 187 192 185 180 173 167 168 167 170 170 166
327 325 323 321 318 316 313 311 309 307 305 303 301 300 298 296 294 293 292 289 287 284 282 280 273 268 266 267 265 259 255 249 240 247 263 260 248 236 224 214 207 203 206 208 207 207 207 204 203 207 211 215 213 212 214 210 212 218 217 221 221 212 210 204 200 201 205 202 196 194 195 194 190 191 195 195 192 190 195 188 181 173 165 166 168 172 174 171
328 326 324 322 320 317 314 311 309 307 305 303 300 299 297 295 294 292 291 289 286 283 280 277 270 264 264 265 265 257 251 248 244 254 266 262 248 233 219 212 207 204 205 207 207 207 206 204 206 210 213 216 215 214 215 212 215 220 218 220 221 216 213 207 202 204 214 212 203 201 200 196 194 197 198 199 197 187 188 181 173 171 168 168 169 172 176 175
328 326 325 322 320 317 315 312 309 307 304 303 301 299 296 295 293 291 290 288 284 282 278 273 267 263 263 263 263 256 250 249 247 256 268 260 244 227 215 210 207 205 205 205 206 207 206 206 209 212 214 217 217 215 216 214 215 220 221 220 219 219 216 212 211 214 219 217 212 208 202 199 199 201 198 198 199 185 173 171 169 169 168 170 171 173 177 178
327 326 324 321 319 317 315 312 309 307 305 303 301 299 297 295 293 291 289 287 283 279 274 269 265 263 262 262 261 255 249 248 247 254 263 253 237 220 211 209 208 207 207 207 206 207 208 208 211 214 216 219 218 215 214 215 217 220 223 223 221 220 218 217 218 218 218 216 214 208 201 200 200 201 198 196 196 185 169 167 169 168 168 171 174 175 176 178
327 326 324 321 319 316 314 311 308 306 304 303 301 299 298 296 293 291 289 286 281 276 271 266 264 263 262 261 261 255 248 249 249 252 256 247 232 216 211 211 209 208 210 210 208 208 210 211 211 213 218 220 218 216 215 217 220 221 223 225 224 220 217 218 217 214 214 212 211 209 204 202 200 201 203 198 193 181 171 170 171 171 172 174 177 179 178 179
327 326 324 321 319 316 314 311 308 306 304 302 301 299 297 295 293 291 288 284 279 275 271 267 264 262 261 260 257 252 250 251 248 249 250 243 230 217 215 214 210 210 212 212 210 210 211 213 212 214 221 221 218 218 216 216 219 220 223 226 227 226 221 219 217 214 215 213 213 214 210 205 199 201 205 198 190 181 175 174 173 174 176 177 179 182 181 180
327 326 324 321 319 316 313 311 308 306 305 303 301 299 297 295 292 290 286 282 278 276 273 269 265 262 260 257 255 254 254 251 247 248 247 239 229 220 220 219 213 213 213 213 213 212 212 214 213 215 221 220 218 220 219 219 221 222 224 226 227 228 225 222 220 217 218 218 215 215 217 212 204 204 205 194 187 185 183 179 177 178 180 180 181 182 184 183
325 325 323 321 319 316 313 310 308 306 305 304 303 301 298 295 292 288 283 281 279 276 273 268 264 262 259 255 254 258 256 250 246 247 244 237 231 225 225 224 217 216 216 215 214 213 213 213 212 214 217 218 217 219 222 221 222 225 226 227 228 228 226 221 219 217 218 218 213 213 218 214 208 208 207 195 189 190 189 185 182 181 182 183 183 183 185 185
324 324 322 321 318 315 312 310 308 306 306 304 304 302 299 295 290 286 283 283 279 274 270 266 263 260 259 255 254 258 255 250 247 245 242 237 233 229 228 225 220 220 221 219 216 214 214 214 213 215 217 219 217 218 223 221 220 223 225 226 227 227 227 221 217 215 217 217 212 212 218 217 214 211 205 195 192 194 193 190 187 185 185 186 186 185 185 186
323 322 321 319 317 314 312 310 307 307 305 304 304 302 299 294 289 285 285 284 277 273 269 264 261 258 258 255 255 260 255 249 246 244 241 236 232 229 227 224 220 221 223 221 218 214 215 216 216 217 219 221 222 221 223 221 219 220 222 223 222 224 224 217 214 213 215 215 211 213 221 221 216 209 203 197 196 198 197 193 191 189 187 187 189 187 185 187
322 321 320 318 316 313 311 309 307 307 305 304 304 302 298 292 287 287 287 283 274 273 268 261 260 259 258 255 256 261 257 251 248 246 241 234 231 229 225 223 220 220 222 220 217 214 215 217 217 218 219 220 224 223 221 220 218 216 219 220 218 220 220 212 210 212 214 213 209 214 221 218 211 206 201 200 200 201 200 196 194 193 189 188 190 190 188 188
322 322 320 318 315 312 310 309 307 307 306 305 303 301 297 289 285 287 287 282 271 270 269 264 262 261 261 259 258 260 258 257 253 246 239 233 231 228 223 220 218 219 220 219 216 214 215 217 218 219 220 220 221 222 220 220 218 215 217 220 216 215 217 215 211 211 213 212 209 214 221 219 216 212 202 201 204 204 203 199 196 195 192 191 191 192 191 189
321 321 320 318 315 312 310 309 307 307 306 306 303 298 294 286 282 287 286 279 269 268 271 270 266 259 260 262 260 263 264 261 255 247 240 235 231 225 219 218 217 217 217 217 216 214 213 216 218 220 221 221 220 219 220 219 217 214 215 220 219 216 217 216 212 210 212 215 213 215 220 218 214 210 202 203 206 205 205 201 197 196 194 193 194 194 194 192
320 320 319 317 315 312 310 309 308 307 307 306 301 294 292 283 280 286 285 277 270 267 267 271 267 257 257 264 266 267 267 263 256 250 244 235 229 222 218 218 216 214 214 216 215 214 214 216 219 221 221 221 219 217 219 220 218 216 214 217 220 218 217 215 213 210 211 214 216 216 219 219 217 211 203 206 206 206 207 203 200 198 196 195 196 197 196 195
319 319 318 315 313 310 308 308 306 306 306 306 298 290 290 285 278 281 282 277 274 269 265 269 268 258 259 268 270 269 266 262 256 251 242 232 226 221 220 219 216 214 215 216 216 215 214 216 219 221 221 219 219 218 219 221 222 221 218 218 219 219 219 216 214 210 209 213 218 219 220 219 221 217 209 208 207 208 208 206 205 203 199 198 198 200 198 197
319 318 317 314 311 309 306 306 305 304 304 304 297 287 288 288 279 277 283 281 277 274 269 269 268 261 262 266 270 270 263 256 255 251 240 230 224 221 221 220 217 218 220 217 216 215 215 219 221 221 221 220 219 219 221 222 224 226 224 220 220 221 220 217 215 213 211 215 218 220 223 220 220 220 216 212 210 210 210 209 209 206 203 201 201 202 200 199
319 318 317 314 311 308 305 304 304 303 302 301 298 290 288 292 285 281 285 279 274 274 269 268 268 264 264 264 267 271 262 253 254 251 241 233 227 224 222 220 220 221 221 218 216 216 218 222 223 221 222 222 221 220 222 224 224 225 225 223 221 221 221 219 217 216 215 218 219 220 224 223 219 219 218 214 212 212 212 212 211 208 205 203 203 203 202 201
319 318 317 315 311 308 305 304 303 303 301 297 298 294 289 291 287 283 282 276 273 272 268 266 265 265 265 261 263 267 259 252 251 250 248 238 232 231 225 222 224 223 220 218 217 217 221 225 224 222 222 223 223 221 221 223 223 224 225 225 223 221 221 223 221 218 218 219 220 221 225 226 223 221 221 216 214 216 215 214 213 209 207 205 204 203 202 201
319 318 317 315 312 309 305 303 302 302 299 297 298 297 293 292 288 282 277 275 273 268 267 267 264 267 269 262 263 266 258 252 251 251 253 243 234 234 230 224 225 224 220 220 220 220 223 225 223 223 223 221 221 220 219 222 224 225 225 225 224 221 220 222 222 221 222 223 223 225 228 228 225 223 223 219 215 217 217 216 215 213 210 207 205 203 202 201
320 318 317 316 313 309 306 303 300 300 298 296 298 299 296 292 289 281 274 274 272 265 266 267 263 266 268 263 264 264 256 253 254 252 252 246 238 235 232 227 227 226 223 222 222 224 226 225 223 223 221 219 219 219 220 222 225 225 225 225 225 222 220 222 223 222 224 225 225 228 231 230 226 223 223 220 216 217 218 217 216 216 213 211 209 207 205 203
321 319 318 317 314 311 308 302 299 301 297 292 296 300 297 294 290 281 275 274 270 264 263 263 262 264 266 263 263 261 252 252 254 252 252 248 242 237 233 231 229 228 226 223 225 228 228 225 222 221 219 219 221 222 221 222 225 226 225 225 226 226 223 223 225 226 225 226 223 224 230 231 227 225 223 221 218 217 217 218 217 216 214 212 211 209 207 205
321 319 318 316 314 312 306 298 299 301 295 291 298 300 297 294 288 279 277 274 268 264 263 263 263 265 266 265 268 260 249 251 253 251 252 247 242 239 236 232 229 231 229 225 227 229 228 225 221 220 220 220 223 224 222 221 225 227 224 223 225 227 226 224 225 226 226 228 223 221 227 232 228 225 223 222 221 218 217 218 218 216 213 212 211 210 208 207
321 319 317 316 314 312 305 297 298 299 294 294 299 300 297 293 284 276 275 271 265 265 266 264 262 267 268 267 270 258 249 256 253 247 252 249 242 238 236 232 229 231 230 227 229 229 226 225 222 221 222 222 223 224 222 220 223 226 224 223 223 225 226 225 226 227 227 230 228 222 224 231 230 225 221 221 221 218 216 217 217 215 213 212 211 210 209 208
320 319 317 316 313 310 304 299 299 298 297 298 299 299 297 289 277 273 274 269 264 264 266 264 261 267 269 265 267 258 253 260 253 248 255 250 243 237 235 234 232 233 229 226 229 228 224 225 224 222 223 223 224 224 222 220 223 225 225 226 224 223 225 226 227 228 228 230 230 224 222 228 230 226 220 219 220 219 216 216 217 216 214 212 212 211 210 209
320 318 316 315 312 307 302 299 297 297 298 298 299 299 294 281 271 272 272 269 267 264 265 266 261 267 270 261 262 262 257 257 253 254 255 247 243 239 236 237 236 235 231 228 231 230 226 226 226 225 225 224 224 224 222 221 223 224 224 225 225 225 225 225 227 228 228 230 230 226 223 228 230 226 221 219 220 219 217 217 217 217 215 213 212 213 211 210
320 317 315 313 310 306 303 299 295 298 300 297 299 298 284 272 271 270 267 266 270 268 267 269 263 267 271 260 258 264 261 258 258 256 250 244 243 239 237 238 236 235 233 230 231 232 230 226 226 226 226 225 225 224 223 222 223 224 224 224 224 225 224 224 225 226 228 231 229 226 225 229 232 226 222 221 221 221 219 218 217 216 216 213 212 213 211 209
321 318 315 312 308 306 304 299 298 301 300 296 298 293 275 270 272 270 268 267 272 272 267 272 269 267 271 265 263 266 261 260 261 256 249 244 242 240 237 235 233 233 232 231 231 231 230 227 225 226 226 225 225 224 223 221 221 222 222 221 222 223 222 222 223 222 226 230 228 227 227 230 232 226 223 222 221 222 221 219 217 215 216 215 213 213 211 209
323 319 315 312 308 306 303 301 301 300 297 295 294 285 273 273 270 268 272 268 270 275 270 273 277 272 268 265 266 267 261 260 261 255 250 245 242 241 238 235 234 232 231 229 228 228 229 228 227 226 225 224 223 222 221 220 219 219 219 217 218 219 218 220 220 220 226 230 227 226 226 229 232 228 226 224 221 221 221 218 217 216 215 215 213 212 211 209
325 321 317 315 311 307 304 302 301 299 296 293 287 280 275 274 271 272 279 272 269 277 274 271 278 278 269 261 266 267 258 260 263 256 250 246 243 238 236 238 238 234 232 231 228 225 227 227 225 226 225 222 220 220 219 218 218 218 217 215 216 217 217 218 220 222 227 228 226 225 225 230 232 230 228 226 223 223 220 217 217 217 215 214 213 213 211 209
326 321 317 318 315 310 308 305 303 300 293 287 282 276 270 272 275 278 281 280 274 273 274 275 277 277 271 264 269 270 259 260 266 261 252 246 242 238 237 239 239 236 235 234 231 227 227 226 222 222 222 219 218 220 220 219 219 218 217 217 218 219 219 220 220 222 226 228 224 220 222 228 228 226 226 225 223 223 222 217 216 218 217 215 214 213 212 210
327 320 317 322 320 316 315 312 308 302 290 282 278 271 270 275 282 279 278 283 278 272 274 277 274 270 265 264 269 272 266 266 269 264 255 247 245 243 242 241 240 238 236 234 232 230 230 228 221 220 221 219 219 219 220 220 220 217 216 218 219 220 222 225 226 226 229 231 225 218 221 226 224 222 222 222 221 221 222 220 217 218 218 215 215 214 213 211
327 321 320 327 327 323 321 317 313 304 287 280 274 271 279 285 289 285 282 282 279 279 278 273 270 269 265 264 266 271 271 269 270 264 255 251 250 246 242 241 241 239 234 233 234 231 230 227 221 220 222 221 221 220 219 219 219 216 216 219 220 220 223 227 230 230 231 233 227 221 223 225 227 229 225 222 221 219 220 221 220 220 219 217 216 214 213 213
330 325 323 331 332 328 324 321 317 306 288 285 280 280 288 287 288 287 283 282 279 282 281 273 272 273 271 269 266 273 276 268 265 265 258 252 250 247 244 241 240 239 235 234 234 232 232 232 228 224 222 221 223 224 222 221 220 220 219 219 218 220 223 226 228 227 227 229 228 225 226 225 225 227 224 222 222 219 219 220 218 218 219 218 217 216 215 215
331 326 326 337 337 330 326 324 318 306 292 291 288 288 293 289 290 288 284 284 281 281 280 276 277 276 273 273 270 272 275 267 264 266 261 254 250 250 249 244 241 241 239 235 233 231 234 236 232 225 223 223 223 224 223 221 221 223 224 221 218 219 220 221 224 224 224 227 227 227 228 226 223 221 218 220 219 217 219 220 218 217 218 218 218 217 216 216
330 324 330 341 338 332 328 323 317 309 298 300 297 292 294 294 298 296 289 286 282 282 280 277 279 275 271 276 276 272 271 268 268 265 258 255 252 250 251 248 245 244 243 238 235 233 232 233 229 222 222 225 223 221 221 219 219 221 224 225 222 221 221 220 222 223 225 227 227 226 226 226 225 223 220 218 217 216 217 219 219 217 217 217 216 216 216 216
332 327 338 343 340 337 334 326 324 323 316 321 318 301 298 299 303 303 297 290 285 285 284 279 277 274 272 275 274 271 270 269 267 263 259 257 252 249 250 251 250 249 247 240 235 234 231 229 229 225 224 225 222 219 220 220 219 219 220 222 221 220 222 222 223 222 223 226 227 226 227 226 225 223 220 219 218 218 218 219 219 217 217 217 214 215 216 216
335 331 342 345 343 342 339 339 348 347 341 339 333 321 312 308 309 309 303 297 291 288 288 284 279 278 278 275 271 271 273 270 267 263 260 256 252 250 249 250 253 252 248 240 234 233 231 229 230 229 227 225 220 218 220 222 221 219 219 220 219 219 220 221 222 221 221 224 225 226 228 225 219 216 216 217 218 220 219 219 219 218 217 216 214 214 216 215
341 341 343 345 347 345 345 357 1 354 354 350 342 336 325 314 314 315 311 304 297 293 289 284 282 282 280 278 276 275 274 271 267 263 259 255 253 251 249 250 253 252 248 242 236 235 233 232 232 231 229 228 227 227 226 225 224 223 221 219 219 219 219 220 222 221 221 223 224 227 230 225 217 211 211 213 215 219 220 218 219 218 216 215 215 214 215 214
350 352 349 350 352 346 350 10 9 3 6 357 346 342 333 324 322 320 317 310 303 298 293 287 286 285 282 280 280 278 275 271 266 262 259 255 253 252 250 250 251 248 245 242 238 235 233 232 232 232 231 231 232 232 229 226 225 223 221 219 218 219 219 220 222 222 222 221 220 223 227 225 221 216 214 216 217 219 221 219 219 219 217 216 215 214 214 213
353 356 358 1 2 357 1 14 12 10 11 3 356 348 337 332 328 324 321 317 309 302 297 292 290 287 285 284 282 278 275 271 264 260 257 254 250 251 252 251 247 244 242 240 239 237 235 232 230 231 230 227 226 226 224 222 222 221 221 220 219 219 220 221 222 222 223 222 221 223 224 223 221 219 218 220 221 222 222 221 220 219 219 217 215 213 212 212
351 357 5 9 14 19 20 15 11 13 14 10 5 355 342 336 331 326 322 320 315 308 301 296 293 290 290 288 284 278 274 269 264 261 257 254 251 251 251 249 245 242 240 240 241 240 237 234 230 229 226 221 219 219 219 219 219 219 219 219 219 219 220 221 222 223 223 222 223 224 223 219 215 215 217 218 218 219 219 219 219 217 216 216 215 212 210 211
355 0 3 7 17 25 25 19 14 13 9 2 359 356 349 342 336 330 324 322 320 313 305 301 299 296 294 292 286 278 273 268 264 262 258 256 254 251 249 248 246 243 242 242 241 238 236 235 232 230 229 227 227 228 226 225 223 220 218 219 220 219 220 221 222 223 223 223 223 222 224 225 218 209 209 211 212 213 213 215 215 213 212 213 212 212 212 212
359 3 4 4 12 18 19 19 17 13 7 359 353 353 351 345 339 333 328 323 322 317 309 307 308 304 299 295 288 281 275 270 265 264 262 259 256 253 251 249 246 244 242 241 239 236 235 235 233 232 232 232 235 237 234 231 229 226 224 223 221 219 219 220 221 222 221 221 222 220 222 227 221 210 207 211 213 214 215 216 215 214 214 212 210 211 212 212
2 8 8 3 3 11 14 15 15 15 12 6 358 353 352 348 343 338 333 327 324 322 317 314 315 313 305 298 292 285 280 275 269 266 264 261 258 255 253 250 247 243 240 238 236 235 236 236 234 235 234 234 235 237 235 232 230 229 228 227 224 222 221 221 222 222 221 220 221 220 221 223 221 219 222 220 216 218 219 218 217 215 214 213 211 212 213 213
7 12 12 7 9 15 16 14 13 13 10 4 359 357 354 351 347 342 337 330 326 327 326 322 322 319 310 301 295 290 286 281 274 270 268 266 263 260 256 252 247 241 238 237 235 234 236 235 234 236 236 236 235 236 235 233 231 230 229 227 226 225 224 224 224 224 224 224 224 223 225 225 222 223 227 223 221 223 221 220 220 216 215 217 217 217 217 218
8 10 9 11 16 18 15 12 10 9 8 1 358 359 355 351 349 344 339 335 332 333 333 331 329 323 314 306 298 292 290 285 279 275 273 270 267 263 259 254 247 240 238 238 235 232 233 234 233 235 236 235 235 234 234 233 231 231 229 227 226 225 225 225 224 224 225 225 224 223 226 226 223 223 226 226 227 228 226 226 225 220 219 221 222 222 222 223
10 9 4 4 11 10 8 10 7 4 6 3 359 358 354 352 349 344 341 341 337 337 339 339 336 332 325 315 303 297 297 290 281 276 274 271 267 264 259 254 250 245 240 238 235 232 232 233 234 235 236 234 232 232 232 233 232 231 229 226 224 224 223 223 223 223 223 224 222 222 224 225 223 224 227 228 229 230 230 230 228 225 224 225 226 228 228 228
9 10 5 2 7 6 3 6 5 3 4 1 358 356 352 351 350 346 346 347 343 343 347 345 343 344 339 330 321 316 311 301 292 285 279 273 267 263 259 254 252 250 245 241 238 234 232 233 232 232 234 233 231 231 232 232 231 228 226 223 222 222 222 223 223 221 221 222 221 221 222 224 224 225 228 228 228 229 230 231 232 231 230 230 230 231 232 232